TimeCDT,TemperatureF,Dew PointF,Humidity,Sea Level PressureIn,VisibilityMPH,Wind Direction,Wind SpeedMPH,Gust SpeedMPH,PrecipitationIn,Events,Conditions,WindDirDegrees,DateUTC
12:15 AM,59.0,55.4,88,30.16,10.0,SE,5.8,-,N/A,,Overcast,140,2012-10-12 05:15:00
12:35 AM,60.8,57.2,88,30.15,10.0,SSE,3.5,-,N/A,,Overcast,150,2012-10-12 05:35:00
12:55 AM,60.8,57.2,88,30.16,10.0,Calm,Calm,-,N/A,,Overcast,0,2012-10-12 05:55:00
1:15 AM,60.8,57.2,88,30.16,10.0,Calm,Calm,-,N/A,Rain,Rain,0,2012-10-12 06:15:00
1:35 AM,60.8,59.0,94,30.15,10.0,SE,6.9,-,N/A,,Overcast,140,2012-10-12 06:35:00
1:55 AM,59.0,57.2,94,30.15,10.0,SE,5.8,-,N/A,,Overcast,130,2012-10-12 06:55:00
2:15 AM,59.0,59.0,100,30.15,10.0,SE,3.5,-,N/A,,Mostly Cloudy,140,2012-10-12 07:15:00
2:35 AM,60.8,59.0,94,30.14,10.0,SE,5.8,-,N/A,,Overcast,140,2012-10-12 07:35:00
2:55 AM,60.8,59.0,94,30.13,10.0,SE,3.5,-,N/A,,Mostly Cloudy,130,2012-10-12 07:55:00
3:15 AM,60.8,59.0,94,30.12,10.0,SE,5.8,-,N/A,Thunderstorm,Mostly Cloudy,140,2012-10-12 08:15:00
3:35 AM,60.8,59.0,94,30.12,10.0,ESE,5.8,-,N/A,,Overcast,120,2012-10-12 08:35:00
3:55 AM,60.8,60.8,100,30.11,10.0,SSE,6.9,-,N/A,,Overcast,150,2012-10-12 08:55:00
4:15 AM,62.6,60.8,94,30.11,10.0,SE,6.9,-,N/A,Thunderstorm,Overcast,140,2012-10-12 09:15:00
4:35 AM,64.4,62.6,94,30.13,10.0,South,5.8,-,N/A,Thunderstorm,Overcast,180,2012-10-12 09:35:00
4:55 AM,64.4,60.8,88,30.14,10.0,NNE,15.0,19.6,N/A,Thunderstorm,Overcast,20,2012-10-12 09:55:00
5:15 AM,62.6,59.0,88,30.13,10.0,NE,19.6,28.8,N/A,Rain-Thunderstorm,Light Thunderstorms and Rain,50,2012-10-12 10:15:00
5:35 AM,60.8,59.0,94,30.15,4.0,East,15.0,18.4,0.23,Rain-Thunderstorm,Thunderstorms and Rain,80,2012-10-12 10:35:00
5:55 AM,60.8,59.0,94,30.17,3.0,NE,12.7,20.7,0.51,Rain-Thunderstorm,Heavy Thunderstorms and Rain,50,2012-10-12 10:55:00
6:15 AM,59.0,59.0,100,30.20,1.8,SE,8.1,20.7,0.73,Rain-Thunderstorm,Heavy Thunderstorms and Rain,130,2012-10-12 11:15:00
6:35 AM,60.8,60.8,100,30.18,5.0,ESE,8.1,-,0.99,Rain-Thunderstorm,Heavy Thunderstorms and Rain,120,2012-10-12 11:35:00
6:55 AM,60.8,60.8,100,30.18,7.0,East,9.2,-,1.09,Rain-Thunderstorm,Light Thunderstorms and Rain,100,2012-10-12 11:55:00
7:35 AM,60.8,60.8,100,30.17,5.0,SE,12.7,-,0.18,Rain-Thunderstorm,Thunderstorms and Rain,130,2012-10-12 12:35:00
7:55 AM,60.8,60.8,100,30.17,10.0,ESE,10.4,-,0.24,Rain-Thunderstorm,Rain,120,2012-10-12 12:55:00
8:15 AM,60.8,60.8,100,30.20,4.0,SSE,8.1,-,0.08,Rain-Thunderstorm,Thunderstorms and Rain,160,2012-10-12 13:15:00
8:35 AM,60.8,60.8,100,30.20,7.0,SSE,9.2,-,0.13,Rain,Rain,160,2012-10-12 13:35:00
8:55 AM,60.8,60.8,100,30.21,10.0,SSE,5.8,-,0.16,Rain-Thunderstorm,Light Thunderstorms and Rain,150,2012-10-12 13:55:00
9:15 AM,60.8,60.8,100,30.21,10.0,SSE,10.4,-,0.04,Rain-Thunderstorm,Light Thunderstorms and Rain,150,2012-10-12 14:15:00
9:55 AM,60.8,60.8,100,30.22,10.0,SSE,10.4,16.1,0.10,Rain,Light Rain,160,2012-10-12 14:55:00
10:15 AM,60.8,60.8,100,30.22,10.0,SSE,11.5,-,N/A,Rain,Light Rain,150,2012-10-12 15:15:00
10:35 AM,60.8,60.8,100,30.21,10.0,SE,9.2,-,N/A,Thunderstorm,Thunderstorm,140,2012-10-12 15:35:00
10:55 AM,60.8,60.8,100,30.23,10.0,SSE,8.1,-,N/A,Rain,Light Rain,160,2012-10-12 15:55:00
11:15 AM,60.8,60.8,100,30.25,10.0,South,3.5,-,0.01,Rain,Light Rain,170,2012-10-12 16:15:00
11:35 AM,60.8,60.8,100,30.25,10.0,SSE,3.5,-,0.02,Rain,Light Rain,150,2012-10-12 16:35:00
11:55 AM,60.8,60.8,100,30.24,7.0,SSE,8.1,-,0.05,Rain-Thunderstorm,Rain,150,2012-10-12 16:55:00
12:15 PM,60.8,60.8,100,30.22,7.0,SE,10.4,-,0.03,Rain,Light Rain,140,2012-10-12 17:15:00
12:55 PM,60.8,60.8,100,30.19,10.0,East,10.4,16.1,0.07,Rain,Light Rain,90,2012-10-12 17:55:00
1:55 PM,64.4,62.6,94,30.17,10.0,Calm,Calm,-,N/A,,Scattered Clouds,0,2012-10-12 18:55:00
2:15 PM,66.2,62.6,88,30.17,10.0,East,3.5,-,N/A,,Scattered Clouds,80,2012-10-12 19:15:00
2:35 PM,66.2,60.8,83,30.16,10.0,SE,4.6,-,N/A,,Clear,130,2012-10-12 19:35:00
3:15 PM,68.0,62.6,83,30.15,10.0,SE,5.8,-,N/A,,Clear,130,2012-10-12 20:15:00
3:35 PM,68.0,62.6,83,30.15,10.0,SE,6.9,-,N/A,,Clear,130,2012-10-12 20:35:00
3:55 PM,69.8,62.6,78,30.15,10.0,ESE,5.8,-,N/A,,Clear,120,2012-10-12 20:55:00
4:15 PM,69.8,62.6,78,30.15,10.0,SSE,5.8,-,N/A,,Clear,150,2012-10-12 21:15:00
4:35 PM,69.8,62.6,78,30.16,10.0,SE,5.8,-,N/A,,Clear,130,2012-10-12 21:35:00
4:55 PM,69.8,60.8,73,30.15,10.0,SE,4.6,-,N/A,,Clear,140,2012-10-12 21:55:00
5:15 PM,68.0,59.0,73,30.15,10.0,SE,6.9,-,N/A,,Clear,130,2012-10-12 22:15:00
5:55 PM,66.2,59.0,78,30.15,10.0,SE,5.8,-,N/A,,Clear,130,2012-10-12 22:55:00
6:15 PM,64.4,60.8,88,30.15,10.0,SE,3.5,-,N/A,,Clear,140,2012-10-12 23:15:00
6:35 PM,64.4,60.8,88,30.16,10.0,SE,3.5,-,N/A,,Clear,140,2012-10-12 23:35:00
6:55 PM,62.6,60.8,94,30.15,10.0,East,5.8,-,N/A,,Clear,80,2012-10-12 23:55:00
7:15 PM,60.8,60.8,100,30.15,10.0,East,8.1,-,N/A,,Clear,100,2012-10-13 00:15:00
7:35 PM,60.8,60.8,100,30.15,10.0,ESE,6.9,-,N/A,,Scattered Clouds,120,2012-10-13 00:35:00
8:15 PM,60.8,60.8,100,30.14,10.0,ESE,9.2,-,N/A,,Overcast,120,2012-10-13 01:15:00
8:35 PM,60.8,60.8,100,30.14,10.0,SE,10.4,-,N/A,,Overcast,130,2012-10-13 01:35:00
9:15 PM,60.8,59.0,94,30.15,10.0,SE,6.9,-,N/A,,Mostly Cloudy,130,2012-10-13 02:15:00
9:35 PM,60.8,59.0,94,30.15,10.0,SE,6.9,-,N/A,,Mostly Cloudy,130,2012-10-13 02:35:00
9:55 PM,59.0,59.0,100,30.15,10.0,SE,6.9,-,N/A,,Mostly Cloudy,130,2012-10-13 02:55:00
10:15 PM,59.0,59.0,100,30.15,10.0,ESE,9.2,-,N/A,,Scattered Clouds,120,2012-10-13 03:15:00
10:35 PM,59.0,59.0,100,30.15,10.0,ESE,8.1,-,N/A,,Scattered Clouds,120,2012-10-13 03:35:00
11:15 PM,59.0,59.0,100,30.13,7.0,SE,10.4,-,N/A,,Overcast,130,2012-10-13 04:15:00
11:35 PM,59.0,59.0,100,30.13,5.0,SE,6.9,-,N/A,,Overcast,140,2012-10-13 04:35:00
11:55 PM,59.0,59.0,100,30.13,4.0,ESE,6.9,-,N/A,,Overcast,120,2012-10-13 04:55:00